{"data":{"norad_id":68882,"epoch":"2026-05-25T04:00:03.998880Z","epoch_age_seconds":57673,"freshness":"FRESH","line1":"1 68882U 26095U   26145.16671295 -.00027878  00000+0 -14083-2 0  9990","line2":"2 68882  51.8881 354.5612 0005030 218.3177 251.9860 15.16342436  5403","mean_motion":15.16342436,"eccentricity":0.000503,"inclination_deg":51.8881,"raan_deg":354.5612,"arg_perigee_deg":218.3177,"mean_anomaly_deg":251.986,"bstar":-0.0014083,"rev_number":540,"period_min":94.965356492865,"perigee_km":513.43783960184,"apogee_km":520.37425290637,"semimajor_km":6895.0430462541,"source":"CELESTRAK","updated_at":"2026-05-25T13:38:08.649314Z"}}